TimeEST,TemperatureF,Dew PointF,Humidity,Sea Level PressureIn,VisibilityMPH,Wind Direction,Wind SpeedMPH,Gust SpeedMPH,PrecipitationIn,Events,Conditions,WindDirDegrees,DateUTC
12:53 AM,68.0,68.0,100,30.05,10.0,NW,5.8,-,0.11,,Overcast,310,2012-11-17 05:53:00
1:53 AM,66.9,66.9,100,30.04,10.0,NNW,8.1,-,0.04,Rain,Light Rain,340,2012-11-17 06:53:00
2:53 AM,66.0,66.0,100,30.03,10.0,NW,6.9,-,0.00,,Partly Cloudy,320,2012-11-17 07:53:00
3:53 AM,66.0,66.0,100,30.03,10.0,NNW,5.8,-,N/A,,Scattered Clouds,330,2012-11-17 08:53:00
4:32 AM,66.2,66.2,100,30.04,10.0,Calm,Calm,-,N/A,,Mostly Cloudy,0,2012-11-17 09:32:00
4:53 AM,66.9,66.9,100,30.05,10.0,North,4.6,-,N/A,,Mostly Cloudy,10,2012-11-17 09:53:00
5:53 AM,66.0,66.0,100,30.06,10.0,North,4.6,-,N/A,,Clear,350,2012-11-17 10:53:00
6:53 AM,66.9,66.9,100,30.07,10.0,North,9.2,-,N/A,,Clear,350,2012-11-17 11:53:00
8:53 AM,69.1,68.0,96,30.10,10.0,NNE,11.5,-,N/A,,Partly Cloudy,20,2012-11-17 13:53:00
9:53 AM,73.0,66.0,79,30.11,10.0,NE,12.7,-,N/A,,Scattered Clouds,40,2012-11-17 14:53:00
10:53 AM,73.9,66.9,79,30.10,10.0,ENE,10.4,-,N/A,,Scattered Clouds,60,2012-11-17 15:53:00
11:53 AM,75.0,64.9,71,30.09,10.0,ENE,10.4,-,N/A,,Scattered Clouds,70,2012-11-17 16:53:00
12:53 PM,73.9,64.9,73,30.06,10.0,NE,10.4,-,N/A,,Scattered Clouds,50,2012-11-17 17:53:00
1:53 PM,75.9,64.0,67,30.04,10.0,NE,11.5,-,N/A,,Scattered Clouds,50,2012-11-17 18:53:00
2:53 PM,75.9,64.0,67,30.04,10.0,NE,12.7,-,N/A,,Partly Cloudy,50,2012-11-17 19:53:00
3:53 PM,75.0,63.0,66,30.04,10.0,ENE,10.4,-,N/A,,Partly Cloudy,70,2012-11-17 20:53:00
4:53 PM,73.9,64.9,73,30.05,10.0,NE,12.7,18.4,0.00,,Mostly Cloudy,40,2012-11-17 21:53:00
5:53 PM,72.0,66.0,81,30.05,10.0,NE,10.4,-,0.03,,Mostly Cloudy,50,2012-11-17 22:53:00
6:53 PM,73.0,66.0,79,30.06,10.0,NE,10.4,-,N/A,,Partly Cloudy,50,2012-11-17 23:53:00
7:53 PM,73.0,64.0,73,30.07,10.0,NE,9.2,-,N/A,,Partly Cloudy,50,2012-11-18 00:53:00
8:53 PM,73.0,63.0,71,30.07,10.0,NE,9.2,-,N/A,,Partly Cloudy,50,2012-11-18 01:53:00
9:53 PM,73.0,64.9,76,30.07,10.0,NE,10.4,-,N/A,,Mostly Cloudy,50,2012-11-18 02:53:00
10:53 PM,71.1,68.0,90,30.07,10.0,North,9.2,-,0.02,Rain,Light Rain,350,2012-11-18 03:53:00
11:53 PM,72.0,64.9,78,30.06,10.0,NE,10.4,17.3,0.00,,Mostly Cloudy,50,2012-11-18 04:53:00